When you browse on this site, cookies collect data to enhance your experience and personalize the content and advertising you see.
Visit our Privacy Policy to learn more. By continuing to use the site, you agree to this use of cookies and data.
  • In Czech Republic
  • List of Countries
  • For 7 days
  • Water Temperature
  • Satellite Maps
  • Weather Map
  • Weather Widgets
  • user-avatar
    Login

    Hourly Weather Warwick

    Today, 19 April, Friday

    Time Temperature Precipitation Wind Pressure Humidity
    00:00 +15°C° 0 mm 7 mps 758 mmHg 92%
    01:00 +14°C° 0 mm 6 mps 758 mmHg 90%
    02:00 +14°C° 0 mm 6 mps 758 mmHg 91%
    03:00 +14°C° 0 mm 6 mps 757 mmHg 91%
    04:00 +14°C° 0 mm 7 mps 757 mmHg 92%
    05:00 +15°C° 0 mm 7 mps 757 mmHg 91%
    06:00 +15°C° 0 mm 7 mps 757 mmHg 90%
    07:00 +16°C° 0 mm 7 mps 757 mmHg 89%
    08:00 +16°C° 0.1 mm 7 mps 757 mmHg 87%
    09:00 +17°C° 0.1 mm 7 mps 757 mmHg 85%
    10:00 +17°C° 0.1 mm 7 mps 757 mmHg 83%
    11:00 +17°C° 0.1 mm 8 mps 757 mmHg 83%
    12:00 +17°C° 0.1 mm 8 mps 757 mmHg 83%
    13:00 +18°C° 0.1 mm 8 mps 756 mmHg 83%
    14:00 +17°C° 0.1 mm 7 mps 757 mmHg 84%
    15:00 +17°C° 0.1 mm 7 mps 757 mmHg 85%
    16:00 +17°C° 0.1 mm 7 mps 757 mmHg 86%
    17:00 +17°C° 0.1 mm 6 mps 756 mmHg 88%
    18:00 +17°C° 0.1 mm 6 mps 756 mmHg 89%
    19:00 +16°C° 0.1 mm 6 mps 756 mmHg 91%
    20:00 +17°C° 0.2 mm 6 mps 756 mmHg 90%
    21:00 +17°C° 0.2 mm 7 mps 756 mmHg 90%
    22:00 +17°C° 0.2 mm 7 mps 756 mmHg 90%
    23:00 +17°C° 0.8 mm 8 mps 756 mmHg 90%

    Tomorrow, 20 April, Saturday

    Time Temperature Precipitation Wind Pressure Humidity
    00:00 +18°C° 0.8 mm 8 mps 756 mmHg 91%
    01:00 +18°C° 0.8 mm 8 mps 756 mmHg 92%
    02:00 +18°C° 0.4 mm 8 mps 756 mmHg 92%
    03:00 +18°C° 0.4 mm 8 mps 756 mmHg 92%
    04:00 +18°C° 0.4 mm 8 mps 756 mmHg 92%
    05:00 +18°C° 0.4 mm 8 mps 756 mmHg 92%
    06:00 +18°C° 0.4 mm 7 mps 756 mmHg 91%
    07:00 +18°C° 0.4 mm 7 mps 757 mmHg 91%
    08:00 +18°C° 0.6 mm 7 mps 757 mmHg 91%
    09:00 +18°C° 0.6 mm 7 mps 757 mmHg 90%
    10:00 +18°C° 0.6 mm 8 mps 757 mmHg 89%
    11:00 +18°C° 4.5 mm 7 mps 757 mmHg 91%
    12:00 +17°C° 4.5 mm 6 mps 758 mmHg 93%
    13:00 +17°C° 4.5 mm 5 mps 758 mmHg 94%
    14:00 +17°C° 1.9 mm 5 mps 758 mmHg 92%
    15:00 +16°C° 1.9 mm 5 mps 758 mmHg 90%
    16:00 +16°C° 1.9 mm 5 mps 758 mmHg 88%
    17:00 +15°C° 0.2 mm 4 mps 759 mmHg 90%
    18:00 +15°C° 0.2 mm 4 mps 759 mmHg 93%
    19:00 +15°C° 0.2 mm 4 mps 759 mmHg 95%
    20:00 +17°C° 0.1 mm 4 mps 759 mmHg 95%
    21:00 +16°C° 0.1 mm 5 mps 759 mmHg 95%
    22:00 +16°C° 0.1 mm 5 mps 760 mmHg 95%
    23:00 +16°C° 0.7 mm 5 mps 759 mmHg 95%

    Day after tomorrow, 21 April, Sunday

    Time Temperature Precipitation Wind Pressure Humidity
    00:00 +16°C° 0.7 mm 5 mps 759 mmHg 95%
    01:00 +16°C° 0.7 mm 5 mps 758 mmHg 96%
    02:00 +17°C° 0.5 mm 4 mps 758 mmHg 96%
    03:00 +15°C° 0.5 mm 4 mps 758 mmHg 96%
    04:00 +16°C° 0.5 mm 3 mps 758 mmHg 97%
    05:00 +16°C° 0 mm 2 mps 758 mmHg 94%
    06:00 +16°C° 0 mm 2 mps 759 mmHg 91%
    07:00 +16°C° 0 mm 1 mps 760 mmHg 88%
    08:00 +16°C° 0 mm 1 mps 760 mmHg 83%
    09:00 +18°C° 0 mm 1 mps 760 mmHg 78%
    10:00 +18°C° 0 mm 2 mps 761 mmHg 73%
    11:00 +17°C° 0.2 mm 2 mps 761 mmHg 74%
    12:00 +18°C° 0.2 mm 1 mps 761 mmHg 76%
    13:00 +16°C° 0.2 mm 1 mps 761 mmHg 77%
    14:00 +17°C° 0 mm 2 mps 761 mmHg 73%
    15:00 +18°C° 0 mm 2 mps 760 mmHg 69%
    16:00 +19°C° 0 mm 2 mps 760 mmHg 66%
    17:00 +17°C° 0 mm 2 mps 761 mmHg 72%
    18:00 +16°C° 0 mm 2 mps 761 mmHg 78%
    19:00 +14°C° 0 mm 1 mps 761 mmHg 84%
    20:00 +14°C° 0 mm 1 mps 762 mmHg 86%
    21:00 +13°C° 0 mm 1 mps 762 mmHg 88%
    22:00 +13°C° 0 mm 1 mps 762 mmHg 91%
    23:00 +13°C° 0 mm 1 mps 762 mmHg 91%

    22 April, Monday

    Time Temperature Precipitation Wind Pressure Humidity
    00:00 +11°C° 0 mm 0 mps 762 mmHg 91%
    01:00 +11°C° 0 mm 0 mps 761 mmHg 91%
    02:00 +11°C° 0 mm 0 mps 761 mmHg 91%
    03:00 +12°C° 0 mm 1 mps 761 mmHg 91%
    04:00 +12°C° 0 mm 1 mps 761 mmHg 91%
    05:00 +12°C° 0.2 mm 1 mps 761 mmHg 89%
    06:00 +13°C° 0.2 mm 1 mps 762 mmHg 87%
    07:00 +12°C° 0.2 mm 0 mps 762 mmHg 85%
    08:00 +14°C° 0.2 mm 1 mps 762 mmHg 82%
    09:00 +15°C° 0.2 mm 1 mps 762 mmHg 79%
    10:00 +16°C° 0.2 mm 1 mps 762 mmHg 76%
    11:00 +18°C° 0.1 mm 1 mps 761 mmHg 72%
    12:00 +19°C° 0.1 mm 1 mps 761 mmHg 69%
    13:00 +20°C° 0.1 mm 1 mps 761 mmHg 66%
    14:00 +20°C° 0.4 mm 1 mps 761 mmHg 66%
    15:00 +19°C° 0.4 mm 1 mps 760 mmHg 67%
    16:00 +18°C° 0.4 mm 2 mps 760 mmHg 68%
    17:00 +16°C° 0.1 mm 2 mps 760 mmHg 74%
    18:00 +15°C° 0.1 mm 2 mps 760 mmHg 80%
    19:00 +14°C° 0.1 mm 2 mps 761 mmHg 86%
    20:00 +13°C° 0 mm 2 mps 761 mmHg 87%
    21:00 +12°C° 0 mm 2 mps 761 mmHg 89%
    22:00 +12°C° 0 mm 2 mps 761 mmHg 90%
    23:00 +12°C° 0 mm 2 mps 760 mmHg 90%

    23 April, Tuesday

    Time Temperature Precipitation Wind Pressure Humidity
    00:00 +10°C° 0 mm 2 mps 760 mmHg 90%
    01:00 +10°C° 0 mm 2 mps 759 mmHg 90%
    02:00 +10°C° 0 mm 2 mps 759 mmHg 91%
    03:00 +10°C° 0 mm 2 mps 759 mmHg 91%
    04:00 +10°C° 0 mm 2 mps 759 mmHg 91%
    05:00 +12°C° 0.1 mm 1 mps 759 mmHg 90%
    06:00 +13°C° 0.1 mm 1 mps 760 mmHg 88%
    07:00 +13°C° 0.1 mm 1 mps 760 mmHg 87%
    08:00 +16°C° 0 mm 2 mps 760 mmHg 80%
    09:00 +18°C° 0 mm 2 mps 760 mmHg 72%
    10:00 +21°C° 0 mm 3 mps 759 mmHg 64%
    11:00 +23°C° 0.1 mm 2 mps 759 mmHg 61%
    12:00 +24°C° 0.1 mm 2 mps 759 mmHg 57%
    13:00 +24°C° 0.1 mm 2 mps 759 mmHg 54%
    14:00 +24°C° 0 mm 2 mps 758 mmHg 56%
    15:00 +23°C° 0 mm 2 mps 758 mmHg 58%
    16:00 +23°C° 0 mm 2 mps 758 mmHg 61%
    17:00 +20°C° 0 mm 2 mps 758 mmHg 67%
    18:00 +18°C° 0 mm 2 mps 758 mmHg 74%
    19:00 +14°C° 0 mm 3 mps 758 mmHg 81%
    20:00 +15°C° 0 mm 2 mps 758 mmHg 82%
    21:00 +14°C° 0 mm 2 mps 758 mmHg 84%
    22:00 +13°C° 0 mm 2 mps 758 mmHg 86%
    23:00 +13°C° 0 mm 2 mps 758 mmHg 87%

    24 April, Wednesday

    Time Temperature Precipitation Wind Pressure Humidity
    00:00 +12°C° 0 mm 1 mps 757 mmHg 88%
    01:00 +12°C° 0 mm 1 mps 757 mmHg 89%
    02:00 +12°C° 0.1 mm 1 mps 756 mmHg 90%
    03:00 +12°C° 0.1 mm 1 mps 756 mmHg 92%
    04:00 +12°C° 0.1 mm 1 mps 755 mmHg 93%
    05:00 +13°C° 0.1 mm 2 mps 755 mmHg 89%
    06:00 +13°C° 0.1 mm 3 mps 754 mmHg 85%
    07:00 +14°C° 0.1 mm 3 mps 754 mmHg 81%
    08:00 +17°C° 0.2 mm 4 mps 753 mmHg 79%
    09:00 +18°C° 0.2 mm 4 mps 752 mmHg 76%
    10:00 +20°C° 0.2 mm 4 mps 752 mmHg 73%
    11:00 +21°C° 0.2 mm 4 mps 751 mmHg 72%
    12:00 +21°C° 0.2 mm 4 mps 751 mmHg 70%
    13:00 +22°C° 0.2 mm 5 mps 750 mmHg 69%
    14:00 +22°C° 0.7 mm 4 mps 750 mmHg 71%
    15:00 +21°C° 0.7 mm 4 mps 750 mmHg 73%
    16:00 +21°C° 0.7 mm 4 mps 750 mmHg 75%
    17:00 +19°C° 0 mm 4 mps 751 mmHg 76%
    18:00 +18°C° 0 mm 3 mps 751 mmHg 77%
    19:00 +16°C° 0 mm 3 mps 752 mmHg 77%
    20:00 +14°C° 0 mm 3 mps 752 mmHg 78%
    21:00 +13°C° 0 mm 3 mps 753 mmHg 78%
    22:00 +12°C° 0 mm 3 mps 753 mmHg 78%
    23:00 +11°C° 0 mm 3 mps 754 mmHg 78%
    Show more